CW7229 Weather Reports


Display with metric or nautical units.
time (UTC)temp
F
wind
direction
speed
MPH
gust
MPH
rain 1hr
in
rain 24hr
in
rain mn
in
humidity
%
barometer
mb
20260903043114 61 184 4.0 6.0 0.00 0.00 0.00 38 1015.6
20260903040114 61 180 4.0 6.0 0.00 0.00 0.00 39 1015.6
20260903033114 61 200 0.0 5.0 0.00 0.00 0.00 40 1015.6
20260903030114 60 173 0.0 4.0 0.00 0.00 0.00 42 1015.6
20260903023114 60 195 0.0 3.0 0.00 0.00 0.00 41 1015.6
20260903020114 60 206 0.0 0.0 0.00 0.00 0.00 40 1016.6
20260903013113 61 163 0.0 0.0 0.00 0.00 0.00 40 1016.6
20260903010113 61 174 0.0 4.0 0.00 0.00 0.00 41 1016.6
20260903003114 60 180 0.0 0.0 0.00 0.00 0.00 42 1016.6
20260903000113 60 170 0.0 0.0 0.00 0.00 0.00 41 1016.6
20260902233114 61 188 0.0 0.0 0.00 0.00 0.00 40 1017.6
20260902223113 62 229 0.0 0.0 0.00 0.00 0.00 38 1017.6
20260902220114 62 182 0.0 0.0 0.00 0.00 0.00 37 1017.6
20260902213113 62 180 0.0 0.0 0.00 0.00 0.00 35 1017.6
20260902210113 63 180 0.0 0.0 0.00 0.00 0.00 34 1017.5
20260902203113 64 188 0.0 3.0 0.00 0.00 0.00 33 1017.5
20260902200113 64 275 0.0 4.0 0.00 0.00 0.00 32 1017.5
20260902193113 64 283 0.0 3.0 0.00 0.00 0.00 30 1017.5
20260902190113 65 264 0.0 0.0 0.00 0.00 0.00 30 1016.5
20260902183113 66 185 3.0 3.0 0.00 0.00 0.00 28 1016.5
20260902180132 68 198 0.0 0.0 0.00 0.00 0.00 25 1016.4
20260902173113 69 230 2.0 6.0 0.00 0.00 0.00 23 1016.4
20260902170131 70 229 3.0 8.0 0.00 0.00 0.00 23 1016.4
20260902163112 71 297 4.0 10.0 0.00 0.00 0.00 23 1016.4
20260902160112 72 292 7.0 11.0 0.00 0.00 0.00 22 1016.3
20260902153112 72 268 5.0 9.0 0.00 0.00 0.00 22 1016.3
20260902150111 73 189 4.0 8.0 0.00 0.00 0.00 21 1016.3
20260902143112 72 315 3.0 5.0 0.00 0.00 0.00 23 1016.3
20260902140112 72 302 3.0 5.0 0.00 0.00 0.00 24 1016.3
20260902133111 73 313 3.0 7.0 0.00 0.00 0.00 26 1016.3
20260902130111 72 308 5.0 8.0 0.00 0.00 0.00 28 1017.3
20260902123111 71 246 8.0 10.0 0.00 0.00 0.00 27 1017.4
20260902120111 69 229 4.0 6.0 0.00 0.00 0.00 31 1017.4
20260902110111 67 260 4.0 8.0 0.00 0.00 0.00 35 1017.5
20260902103114 67 260 3.0 8.0 0.00 0.00 0.00 34 1017.4
20260902093113 65 217 6.0 6.0 0.00 0.00 0.00 40 1017.5
20260902090113 63 171 3.0 4.0 0.00 0.00 0.00 50 1017.5
20260902083113 62 179 3.0 5.0 0.00 0.00 0.00 55 1017.6
20260902073112 59 169 0.0 0.0 0.00 0.00 0.00 71 1017.6
20260902063113 57 143 0.0 4.0 0.00 0.01 0.00 69 1017.7
20260902060136 56 218 0.0 0.0 0.00 0.01 0.00 67 1017.7
20260902053113 56 218 0.0 0.0 0.00 0.06 0.00 66 1017.7